Manzanita, Mexico

5:05 AM CST on December 06, 2016 (GMT -0600)
Xoxocotlan International

Weather History for MMOX - November, 2013

Change the Weather History Date:

Wednesday, November 13, 2013

  Actual Average Record
Temperature  
Mean Temperature 65 °F -  
Max Temperature 71 °F 78 °F 89 °F (2000)
Min Temperature 58 °F 51 °F 42 °F (1996)
Growing Degree Days 15 (Base 50)    
Moisture  
Dew Point 50 °F    
Average Humidity 59    
Maximum Humidity 72    
Minimum Humidity 34    
Precipitation  
Precipitation 0.00 in - - ()
Sea Level Pressure  
Sea Level Pressure 30.12 in    
Wind  
Wind Speed 6 mph ()    
Max Wind Speed 17 mph    
Max Gust Speed -    
Visibility 7.3 miles    
Events Rain    
Averages and records for this station are not official NWS values.
T = Trace of Precipitation, MM = Missing Value Source: Averaged Metar Reports

Daily Weather History Graph

Daily Weather History Graph

Search for Another Location

Airport or City:

Trip Planner

Search our weather history database for the weather conditions in past years. The results will help you decide how hot, cold, wet, or windy it might be!

Date:

Astronomy

Nov. 13, 2013 Rise Set
Actual Time 6:30 AM CST 5:51 PM CST
Civil Twilight 6:07 AM CST 6:14 PM CST
Nautical Twilight 5:41 AM CST 6:40 PM CST
Astronomical Twilight 5:15 AM CST 7:06 PM CST
Moon 3:11 PM CST (11/13) 2:57 AM CST (11/13)
Length of Visible Light 12h 06m
Length of Day
11h 21m
Waxing Gibbous, 85% of the Moon is Illuminated
Nov 13
Waxing Gibbous
Nov 17
Full
Nov 25
Last Quarter
Dec 2
New
Dec 9
First Quarter

Hourly Weather History & Observations

Time (CST) Temp. Dew Point Humidity Pressure Visibility Wind Dir Wind Speed Gust Speed Precip Events Conditions
2:55 AM 62 °F 53 °F 65% 30.01 in 6 mi NE 2.2 mph - -   Partly Cloudy
5:50 AM 62 °F 53 °F 65% 30.04 in 6 mi ENE 2.2 mph - -   Partly Cloudy
6:09 AM 60.8 °F 51.8 °F 72% 29.95 in 7.0 mi NNW 5.8 mph - N/A   Mostly Cloudy
6:45 AM 60.8 °F 51.8 °F 72% 30.25 in 7.0 mi Calm Calm - N/A   Mostly Cloudy
7:45 AM 62.6 °F 51.8 °F 68% 30.27 in 8.0 mi NNW 9.2 mph - N/A   Mostly Cloudy
8:45 AM 67 °F 53 °F 51% 30.07 in 6 mi NW 6.7 mph - -   Partly Cloudy
8:45 AM 64.4 °F 53.6 °F 68% 29.99 in 8.0 mi NNW 8.1 mph - N/A   Overcast
9:45 AM 66.2 °F 51.8 °F 60% 30.28 in 8.0 mi WNW 6.9 mph - N/A   Overcast
10:45 AM 68.0 °F 51.8 °F 56% 30.28 in 8.0 mi NW 11.5 mph - N/A   Overcast
11:45 AM 66.2 °F 51.8 °F 60% 29.97 in 8.0 mi NW 10.4 mph - N/A   Overcast
12:45 PM 68.0 °F 51.8 °F 56% 30.23 in 8.0 mi NNW 12.7 mph - N/A   Overcast
1:45 PM 66.2 °F 50.0 °F 56% 30.20 in 8.0 mi NW 9.2 mph - N/A   Overcast
2:47 PM 68.0 °F 48.2 °F 49% 29.89 in 8.0 mi NW 11.5 mph - N/A   Overcast
2:50 PM 70 °F 48 °F 34% 29.97 in 7 mi North 8.9 mph - - Rain Light Drizzle
3:48 PM 64.4 °F 50.0 °F 59% 30.21 in 8.0 mi NW 17.3 mph - N/A   Overcast
4:48 PM 64.4 °F 48.2 °F 56% 30.22 in 9.0 mi North 11.5 mph - N/A   Mostly Cloudy
5:45 PM 64.4 °F 48.2 °F 56% 29.96 in 9.0 mi NW 12.7 mph - N/A   Mostly Cloudy
5:50 PM 64 °F 48 °F 45% 30.00 in 7 mi North 8.9 mph - -   Partly Cloudy
6:45 PM 62.6 °F 46.4 °F 55% 30.27 in 7.0 mi NW 10.4 mph - N/A   Mostly Cloudy
7:51 PM 60.8 °F 48.2 °F 63% 30.29 in 7.0 mi North 8.1 mph - N/A   Overcast
8:47 PM 59.0 °F 48.2 °F 67% 30.02 in 7.0 mi North 9.2 mph - N/A   Mostly Cloudy
8:50 PM 60 °F 48 °F 56% 30.08 in 6 mi NE 4.5 mph - -   Partly Cloudy
9:45 PM 59.0 °F 48.2 °F 67% 30.31 in 7.0 mi NE 5.8 mph - N/A   Scattered Clouds
11:45 PM 58 °F 49 °F 62% 30.06 in 6 mi NE 2.2 mph - -